Weather History for West Palm Beach, FL

Change the Weather History Date:

Wednesday, November 19, 2014

  Actual Average Record
Temperature  
Mean Temperature 63 °F 72 °F  
Max Temperature 71 °F 80 °F 88 °F (1902)
Min Temperature 54 °F 65 °F 40 °F (1923)
Degree Days  
Heating Degree Days 2 0  
Month to date heating degree days 10 0  
Since 1 July heating degree days 10 1  
Cooling Degree Days 0 8  
Month to date cooling degree days 119 169  
Year to date cooling degree days 4055 3790  
Growing Degree Days 12 (Base 50)    
Moisture  
Dew Point 55 °F    
Average Humidity 80    
Maximum Humidity 93    
Minimum Humidity 66    
Precipitation  
Precipitation 0.28 in 0.14 in 1.80 in (1987)
Month to date precipitation 1.57 3.30  
Year to date precipitation 59.16 57.50  
Snow  
Snow 0.00 in - - ()
Month to date snowfall 0.0  
Since 1 July snowfall 0.0  
Since 1 September snowfall 0.0  
Snow Depth 0.00 in    
Sea Level Pressure  
Sea Level Pressure 30.18 in    
Wind  
Wind Speed 10 mph (NNW)    
Max Wind Speed 16 mph    
Max Gust Speed 25 mph    
Visibility 8 miles    
Events Rain    
T = Trace of Precipitation, MM = Missing Value Source: NWS Daily Summary

Daily Weather History Graph

Daily Weather History Graph

Search for Another Location

Airport:

Trip Planner

Search our weather history database for the weather conditions in past years. The results will help you decide how hot, cold, wet, or windy it might be!

Date:

Astronomy

Nov. 19, 2014 Rise Set
Actual Time 6:42 AM EST 5:28 PM EST
Civil Twilight 6:18 AM EST 5:53 PM EST
Nautical Twilight 5:49 AM EST 6:21 PM EST
Astronomical Twilight 5:22 AM EST 6:49 PM EST
Moon 3:53 AM EST (11/19) 3:41 PM EST (11/19)
Length of Visible Light 11h 35m
Length of Day
10h 45m
Waning Crescent, 9% of the Moon is Illuminated
Nov 19
Waning Crescent
Nov 22
New
Nov 29
First Quarter
Dec 6
Full
Dec 14
Last Quarter

Hourly Weather History & Observations

Time (EST) Temp. Dew Point Humidity Pressure Visibility Wind Dir Wind Speed Gust Speed Precip Events Conditions
12:53 AM 54.0 °F 52.0 °F 93% 30.18 in 5.0 mi NW 11.5 mph - 0.22 in Rain Light Rain
1:53 AM 55.0 °F 52.0 °F 89% 30.18 in 10.0 mi NW 10.4 mph - 0.00 in   Overcast
2:53 AM 55.0 °F 52.0 °F 89% 30.16 in 10.0 mi NNW 12.7 mph - 0.00 in   Overcast
3:53 AM 55.9 °F 53.1 °F 90% 30.17 in 7.0 mi NW 11.5 mph - 0.00 in Rain Light Rain
4:53 AM 55.0 °F 51.1 °F 86% 30.17 in 10.0 mi NNW 11.5 mph - 0.00 in   Overcast
5:53 AM 55.9 °F 51.1 °F 84% 30.17 in 10.0 mi NNW 11.5 mph - N/A   Overcast
6:50 AM 55.4 °F 51.8 °F 88% 30.20 in 2.0 mi NNW 11.5 mph - 0.00 in Rain Rain
6:53 AM 54.0 °F 52.0 °F 93% 30.20 in 2.0 mi NNW 9.2 mph - 0.02 in Rain Rain
7:18 AM 54.0 °F 52.0 °F 93% 30.20 in 4.0 mi NNW 10.4 mph - 0.04 in Rain Light Rain
7:53 AM 55.0 °F 52.0 °F 89% 30.21 in 6.0 mi NNW 10.4 mph - 0.04 in   Overcast
8:53 AM 57.0 °F 53.1 °F 87% 30.23 in 10.0 mi NNW 10.4 mph - N/A   Overcast
9:53 AM 57.0 °F 53.1 °F 87% 30.25 in 10.0 mi NW 9.2 mph - N/A   Overcast
10:53 AM 59.0 °F 54.0 °F 83% 30.24 in 10.0 mi NNW 9.2 mph - N/A   Overcast
11:53 AM 61.0 °F 55.0 °F 81% 30.21 in 10.0 mi NNW 6.9 mph - N/A   Overcast
12:53 PM 63.0 °F 55.9 °F 78% 30.18 in 10.0 mi NW 6.9 mph - N/A   Overcast
1:53 PM 64.0 °F 57.9 °F 80% 30.17 in 10.0 mi NNW 9.2 mph - N/A   Overcast
2:53 PM 66.9 °F 59.0 °F 76% 30.16 in 10.0 mi NNW 9.2 mph - N/A   Overcast
3:53 PM 66.0 °F 59.0 °F 78% 30.16 in 10.0 mi NNW 10.4 mph - N/A   Overcast
4:53 PM 66.0 °F 59.0 °F 78% 30.16 in 10.0 mi NNW 5.8 mph - N/A   Overcast
5:53 PM 70.0 °F 57.0 °F 63% 30.15 in 10.0 mi NNE 9.2 mph - N/A   Overcast
6:53 PM 71.1 °F 57.9 °F 63% 30.16 in 10.0 mi NNE 10.4 mph - N/A   Overcast
7:53 PM 66.0 °F 59.0 °F 78% 30.17 in 10.0 mi NW 10.4 mph - N/A   Overcast
8:53 PM 64.9 °F 57.9 °F 78% 30.18 in 10.0 mi NNW 9.2 mph - N/A   Overcast
9:53 PM 64.0 °F 57.9 °F 80% 30.18 in 10.0 mi NW 6.9 mph - N/A   Overcast
10:53 PM 63.0 °F 57.9 °F 84% 30.18 in 10.0 mi NW 8.1 mph - N/A   Overcast
11:53 PM 62.1 °F 57.0 °F 84% 30.17 in 10.0 mi NW 8.1 mph - N/A   Overcast